Weather in Shikhobalovo

Russia / Vladimir Oblast     56°25′48″N   40°05′24″E
temp.,
°C
wind,
m/s
gust,
m/s
humid.,
%
clouds,
%
prec.,
mm/h
press.,
hPa
HPBL,
m
5 march, fri
fri500:00−10nw229451 0.0 100121
03:00−10wnw239564 0.0 100323
06:00−11wnw349642 0.0 100437
09:00−10w489548 0.0 1005202
12:00−5wnw588997 0.0 1006722
15:00−4wnw588397 0.2 1008897
18:00−8wnw478872 0.2 1010118
21:00−11nnw338979 0.2 101342
6 march, sat
sat600:00−15wnw228317 0.0 101420
03:00−14wsw34938 0.0 101645
06:00−14w349440 0.0 101564
09:00−11nw369565 0.1 1016244
12:00−9nw358893 0.0 1016507
15:00−8wnw358292 0.1 1015859
18:00−11w338659 0.0 101421
21:00−13sw348629 0.0 101433
7 march, sun
sun700:00−13ssw48910 0.0 1011119
03:00−12ssw612928 0.0 1008215
06:00−10ssw8159091 0.0 1004454
09:00−7ssw9168996 0.3 1000737
12:00−5ssw101592100 0.6 9951061
15:00−4ssw91491100 1.4 9911050
18:00−7w71490100 1.1 991674
21:00−9w61479100 1.7 994437
8 march, mon
mon800:00−9wsw5139467 0.1 993484
03:00−7sw5139183 0.5 993568
06:00−7sw4996100 0.4 992334
09:00−10nnw5885100 1.8 993337
12:00−10wnw699087 0.1 995488
15:00−8wnw7108893 0.1 997813
18:00−8nw71291100 0.3 1000709
21:00−10nw6129299 0.4 1004461
9 march, tue
tue900:00−13nw5119493 0.1 1006356
03:00−16nw499696 0.1 1009240
06:00−16nw4995100 0.1 1011324
09:00−15nw5893100 0.2 1013525
12:00−14nw5791100 0.1 1014511
15:00−13nw4788100 0.1 1015579
18:00−17nw349597 0.0 101542
21:00−21nw349983 0.0 101736